Location: Newark
(51.2625°N, 13.3939°E)
Time: 16:20:43
(UTC+00:00)

Transit 2A Rocket - Pass Details

Date: 30 November 2019
Orbit: 594 x 909 km, 66.7° (Epoch: 08 December)

Event Time Altitude Azimuth Distance (km) Brightness Sun altitude
Rises 18:12:48 0° 209° (SSW) 2,995 8.4 -28.8°
Reaches altitude 10° 18:15:10 10° 208° (SSW) 2,045 7.5 -29.2°
Enters shadow 18:16:42 21° 205° (SSW) 1,447 6.6 -29.4°
